Time,TemperatureF,DewpointF,PressureIn,WindDirection,WindDirectionDegrees,WindSpeedMPH,WindSpeedGustMPH,Humidity,HourlyPrecipIn,Conditions,Clouds,dailyrainin,SoftwareType,DateUTC
2013-03-31 00:03:00,54.0,-99.9,30.07,ENE,70,1.0,7.0,82,0.00,,,0.00,,2013-03-31 04:03:00,
2013-03-31 00:13:00,54.0,49.0,30.07,ENE,70,1.0,7.0,82,0.00,,,0.00,,2013-03-31 04:13:00,
2013-03-31 00:23:00,53.0,49.0,30.07,ENE,77,0.0,7.0,86,0.00,,,0.17,,2013-03-31 04:23:00,
2013-03-31 00:33:00,53.0,50.0,30.06,ESE,107,2.0,6.0,89,0.00,,,0.17,,2013-03-31 04:33:00,
2013-03-31 00:42:00,53.0,50.0,30.06,ESE,107,2.0,6.0,89,0.00,,,0.17,,2013-03-31 04:42:00,
2013-03-31 00:53:00,53.0,50.0,30.06,SSE,150,0.0,6.0,91,0.00,,,0.17,,2013-03-31 04:53:00,
2013-03-31 01:02:00,52.0,50.0,30.05,ESE,118,1.0,5.0,94,0.00,,,0.17,,2013-03-31 05:02:00,
2013-03-31 01:12:00,52.0,50.0,30.05,ESE,118,1.0,5.0,94,0.00,,,0.17,,2013-03-31 05:12:00,
2013-03-31 01:22:00,52.0,50.0,30.04,East,87,3.0,10.0,93,0.00,,,0.17,,2013-03-31 05:22:00,
2013-03-31 01:32:00,52.0,51.0,30.04,East,79,3.0,6.0,95,0.00,,,0.17,,2013-03-31 05:32:00,
2013-03-31 01:42:00,52.0,51.0,30.04,East,79,3.0,6.0,95,0.00,,,0.17,,2013-03-31 05:42:00,
2013-03-31 01:53:00,52.0,51.0,30.03,ENE,69,1.0,5.0,95,0.00,,,0.17,,2013-03-31 05:53:00,
2013-03-31 02:02:00,52.0,51.0,30.03,NNE,21,2.0,6.0,95,0.00,,,0.17,,2013-03-31 06:02:00,
2013-03-31 02:12:00,52.0,51.0,30.03,NNE,21,2.0,6.0,95,0.00,,,0.17,,2013-03-31 06:12:00,
2013-03-31 02:22:00,52.0,51.0,30.02,ESE,111,2.0,6.0,95,0.00,,,0.17,,2013-03-31 06:22:00,
2013-03-31 02:32:00,52.0,50.0,30.01,ENE,66,6.0,9.0,94,0.00,,,0.17,,2013-03-31 06:32:00,
2013-03-31 02:42:00,52.0,50.0,30.01,ENE,66,6.0,9.0,94,0.00,,,0.17,,2013-03-31 06:42:00,
2013-03-31 02:52:00,52.0,51.0,30.01,South,190,1.0,9.0,96,0.00,,,0.17,,2013-03-31 06:52:00,
2013-03-31 03:02:00,52.0,51.0,30.01,NE,48,4.0,9.0,96,0.00,,,0.17,,2013-03-31 07:02:00,
2013-03-31 03:12:00,52.0,51.0,30.01,NE,48,4.0,9.0,96,0.00,,,0.17,,2013-03-31 07:12:00,
2013-03-31 03:22:00,52.0,51.0,30.01,SW,233,2.0,6.0,96,0.00,,,0.17,,2013-03-31 07:22:00,
2013-03-31 03:33:00,52.0,51.0,30.01,SSE,152,0.0,4.0,98,0.00,,,0.17,,2013-03-31 07:33:00,
2013-03-31 03:43:00,52.0,51.0,30.01,SSE,152,0.0,4.0,98,0.00,,,0.17,,2013-03-31 07:43:00,
2013-03-31 03:53:00,51.0,51.0,30.00,SSE,167,0.0,4.0,100,0.01,,,0.17,,2013-03-31 07:53:00,
2013-03-31 04:02:00,50.0,50.0,30.00,South,187,0.0,3.0,100,0.02,,,0.17,,2013-03-31 08:02:00,
2013-03-31 04:12:00,50.0,50.0,30.00,South,187,0.0,3.0,100,0.02,,,0.17,,2013-03-31 08:12:00,
2013-03-31 04:22:00,50.0,50.0,29.99,SSE,153,0.0,0.0,100,0.03,,,0.17,,2013-03-31 08:22:00,
2013-03-31 04:32:00,50.0,50.0,29.98,ENE,76,0.0,3.0,100,0.08,,,0.17,,2013-03-31 08:32:00,
2013-03-31 04:42:00,50.0,50.0,29.98,ENE,76,0.0,3.0,100,0.08,,,0.17,,2013-03-31 08:42:00,
2013-03-31 04:52:00,49.0,49.0,29.97,ENE,73,2.0,3.0,100,0.12,,,0.17,,2013-03-31 08:52:00,
2013-03-31 05:02:00,49.0,49.0,29.96,North,7,3.0,6.0,100,0.16,,,0.17,,2013-03-31 09:02:00,
2013-03-31 05:12:00,49.0,49.0,29.96,North,7,3.0,6.0,100,0.16,,,0.17,,2013-03-31 09:12:00,
2013-03-31 05:22:00,49.0,49.0,29.96,ESE,103,3.0,5.0,100,0.23,,,0.17,,2013-03-31 09:22:00,
2013-03-31 05:33:00,49.0,49.0,29.96,NE,41,3.0,5.0,100,0.22,,,0.17,,2013-03-31 09:33:00,
2013-03-31 05:42:00,49.0,49.0,29.96,NE,41,3.0,5.0,100,0.22,,,0.17,,2013-03-31 09:42:00,
2013-03-31 05:53:00,49.0,49.0,29.95,NE,37,5.0,9.0,100,0.19,,,0.17,,2013-03-31 09:53:00,
2013-03-31 06:03:00,49.0,49.0,29.95,ENE,77,1.0,6.0,100,0.15,,,0.17,,2013-03-31 10:03:00,
2013-03-31 06:13:00,49.0,49.0,29.95,ENE,77,1.0,6.0,100,0.15,,,0.17,,2013-03-31 10:13:00,
2013-03-31 06:24:00,49.0,49.0,29.95,NE,42,1.0,8.0,100,0.08,,,0.17,,2013-03-31 10:24:00,
2013-03-31 06:32:00,49.0,49.0,29.95,East,83,0.0,6.0,100,0.04,,,0.17,,2013-03-31 10:32:00,
2013-03-31 06:42:00,49.0,49.0,29.95,East,83,0.0,6.0,100,0.04,,,0.17,,2013-03-31 10:42:00,
2013-03-31 06:53:00,49.0,49.0,29.94,NE,53,2.0,5.0,100,0.03,,,0.17,,2013-03-31 10:53:00,
2013-03-31 07:02:00,49.0,49.0,29.94,SSE,167,2.0,6.0,100,0.02,,,0.17,,2013-03-31 11:02:00,
2013-03-31 07:12:00,49.0,49.0,29.94,SSE,167,2.0,6.0,100,0.02,,,0.17,,2013-03-31 11:12:00,
2013-03-31 07:23:00,49.0,49.0,29.94,ESE,121,0.0,4.0,100,0.03,,,0.17,,2013-03-31 11:23:00,
2013-03-31 07:32:00,49.0,49.0,29.94,South,176,0.0,4.0,100,0.05,,,0.17,,2013-03-31 11:32:00,
2013-03-31 07:42:00,49.0,49.0,29.94,South,176,0.0,4.0,100,0.05,,,0.17,,2013-03-31 11:42:00,
2013-03-31 07:53:00,49.0,49.0,29.94,ESE,118,0.0,3.0,100,0.05,,,0.17,,2013-03-31 11:53:00,
2013-03-31 08:03:00,49.0,49.0,29.93,East,90,0.0,5.0,100,0.05,,,0.17,,2013-03-31 12:03:00,
2013-03-31 08:12:00,49.0,49.0,29.93,East,90,0.0,5.0,100,0.05,,,0.17,,2013-03-31 12:12:00,
2013-03-31 08:22:00,49.0,49.0,29.94,South,184,1.0,4.0,100,0.03,,,0.17,,2013-03-31 12:22:00,
2013-03-31 08:33:00,49.0,49.0,29.94,NE,48,0.0,3.0,100,0.01,,,0.17,,2013-03-31 12:33:00,
2013-03-31 08:42:00,49.0,49.0,29.94,NE,48,0.0,3.0,100,0.01,,,0.17,,2013-03-31 12:42:00,
2013-03-31 08:53:00,50.0,50.0,29.94,East,79,0.0,4.0,100,0.00,,,0.17,,2013-03-31 12:53:00,
2013-03-31 09:02:00,50.0,50.0,29.93,East,98,0.0,1.0,100,0.00,,,0.17,,2013-03-31 13:02:00,
2013-03-31 09:12:00,50.0,50.0,29.93,East,98,0.0,1.0,100,0.00,,,0.17,,2013-03-31 13:12:00,
2013-03-31 09:22:00,51.0,51.0,29.93,South,172,0.0,1.0,100,0.00,,,0.17,,2013-03-31 13:22:00,
2013-03-31 09:32:00,52.0,52.0,29.92,East,82,0.0,2.0,100,0.00,,,0.17,,2013-03-31 13:32:00,
2013-03-31 09:42:00,52.0,52.0,29.92,East,82,0.0,2.0,100,0.00,,,0.17,,2013-03-31 13:42:00,
2013-03-31 09:53:00,55.0,55.0,29.92,SSE,155,2.0,4.0,100,0.00,,,0.17,,2013-03-31 13:53:00,
2013-03-31 10:02:00,57.0,57.0,29.92,SSW,198,5.0,7.0,100,0.00,,,0.17,,2013-03-31 14:02:00,
2013-03-31 10:12:00,57.0,57.0,29.92,SSW,198,5.0,7.0,100,0.00,,,0.17,,2013-03-31 14:12:00,
2013-03-31 10:22:00,59.0,59.0,29.92,SSW,197,5.0,10.0,100,0.00,,,0.17,,2013-03-31 14:22:00,
2013-03-31 10:32:00,59.0,59.0,29.91,West,278,5.0,15.0,100,0.00,,,0.17,,2013-03-31 14:32:00,
2013-03-31 10:42:00,59.0,59.0,29.91,West,278,5.0,15.0,100,0.00,,,0.17,,2013-03-31 14:42:00,
2013-03-31 10:52:00,59.0,58.0,29.92,North,359,5.0,18.0,98,0.00,,,0.17,,2013-03-31 14:52:00,
2013-03-31 11:03:00,60.0,59.0,29.92,SW,235,6.0,12.0,98,0.00,,,0.17,,2013-03-31 15:03:00,
2013-03-31 11:13:00,60.0,59.0,29.92,SW,235,6.0,12.0,98,0.00,,,0.17,,2013-03-31 15:13:00,
2013-03-31 11:22:00,60.0,59.0,29.92,SSW,211,3.0,17.0,97,0.00,,,0.17,,2013-03-31 15:22:00,
2013-03-31 11:33:00,61.0,60.0,29.91,WSW,257,4.0,18.0,95,0.00,,,0.17,,2013-03-31 15:33:00,
2013-03-31 11:43:00,61.0,60.0,29.91,WSW,257,4.0,18.0,95,0.00,,,0.17,,2013-03-31 15:43:00,
2013-03-31 11:54:00,61.0,60.0,29.91,WSW,257,8.0,17.0,95,0.00,,,0.17,,2013-03-31 15:54:00,
2013-03-31 12:03:00,62.0,60.0,29.91,SSW,204,8.0,18.0,93,0.00,,,0.17,,2013-03-31 16:03:00,
2013-03-31 12:13:00,62.0,60.0,29.91,SSW,204,8.0,18.0,93,0.00,,,0.17,,2013-03-31 16:13:00,
2013-03-31 12:23:00,63.0,60.0,29.90,WSW,240,9.0,13.0,89,0.00,,,0.17,,2013-03-31 16:23:00,
2013-03-31 12:33:00,63.0,59.0,29.89,West,264,10.0,19.0,87,0.00,,,0.17,,2013-03-31 16:33:00,
2013-03-31 12:43:00,63.0,59.0,29.89,West,264,10.0,19.0,87,0.00,,,0.17,,2013-03-31 16:43:00,
2013-03-31 12:53:00,63.0,59.0,29.89,West,278,10.0,20.0,88,0.00,,,0.17,,2013-03-31 16:53:00,
2013-03-31 13:03:00,63.0,59.0,29.89,WSW,242,8.0,16.0,88,0.00,,,0.17,,2013-03-31 17:03:00,
2013-03-31 13:12:00,63.0,59.0,29.89,WSW,242,8.0,16.0,88,0.00,,,0.17,,2013-03-31 17:12:00,
2013-03-31 13:23:00,65.0,60.0,29.88,West,263,6.0,12.0,85,0.00,,,0.17,,2013-03-31 17:23:00,
2013-03-31 13:32:00,65.0,59.0,29.87,SSW,203,9.0,14.0,82,0.00,,,0.17,,2013-03-31 17:32:00,
2013-03-31 13:43:00,65.0,59.0,29.87,SSW,203,9.0,14.0,82,0.00,,,0.17,,2013-03-31 17:43:00,
2013-03-31 13:52:00,64.0,59.0,29.88,West,262,5.0,12.0,83,0.00,,,0.17,,2013-03-31 17:52:00,
2013-03-31 14:03:00,67.0,60.0,29.86,West,260,4.0,17.0,79,0.00,,,0.17,,2013-03-31 18:03:00,
2013-03-31 14:13:00,67.0,60.0,29.86,West,260,4.0,17.0,79,0.00,,,0.17,,2013-03-31 18:13:00,
2013-03-31 14:22:00,67.0,59.0,29.85,West,267,5.0,10.0,76,0.00,,,0.17,,2013-03-31 18:22:00,
2013-03-31 14:32:00,68.0,58.0,29.85,SSW,200,6.0,15.0,70,0.00,,,0.17,,2013-03-31 18:32:00,
2013-03-31 14:42:00,68.0,58.0,29.85,SSW,200,6.0,15.0,70,0.00,,,0.17,,2013-03-31 18:42:00,
2013-03-31 14:53:00,68.0,57.0,29.85,West,278,9.0,17.0,68,0.00,,,0.17,,2013-03-31 18:53:00,
2013-03-31 15:03:00,69.0,58.0,29.84,SW,235,3.0,20.0,67,0.00,,,0.17,,2013-03-31 19:03:00,
2013-03-31 15:12:00,69.0,58.0,29.84,SW,235,3.0,20.0,67,0.00,,,0.17,,2013-03-31 19:12:00,
2013-03-31 15:22:00,70.0,57.0,29.84,SW,235,8.0,17.0,64,0.00,,,0.17,,2013-03-31 19:22:00,
2013-03-31 15:33:00,70.0,55.0,29.83,WNW,283,9.0,15.0,60,0.00,,,0.17,,2013-03-31 19:33:00,
2013-03-31 15:43:00,70.0,55.0,29.83,WNW,283,9.0,15.0,60,0.00,,,0.17,,2013-03-31 19:43:00,
2013-03-31 15:54:00,69.0,55.0,29.83,WSW,257,10.0,17.0,60,0.00,,,0.17,,2013-03-31 19:54:00,
2013-03-31 16:03:00,68.0,55.0,29.83,SW,218,4.0,10.0,64,0.00,,,0.17,,2013-03-31 20:03:00,
2013-03-31 16:12:00,68.0,55.0,29.83,SW,218,4.0,10.0,64,0.00,,,0.17,,2013-03-31 20:12:00,
2013-03-31 16:23:00,69.0,55.0,29.83,SW,225,6.0,10.0,61,0.00,,,0.17,,2013-03-31 20:23:00,
2013-03-31 16:33:00,69.0,55.0,29.82,West,276,3.0,11.0,60,0.00,,,0.17,,2013-03-31 20:33:00,
2013-03-31 16:43:00,69.0,55.0,29.82,West,276,3.0,11.0,60,0.00,,,0.17,,2013-03-31 20:43:00,
2013-03-31 16:53:00,69.0,55.0,29.82,SW,231,7.0,18.0,60,0.00,,,0.17,,2013-03-31 20:53:00,
2013-03-31 17:02:00,67.0,57.0,29.83,SW,232,8.0,17.0,70,0.00,,,0.17,,2013-03-31 21:02:00,
2013-03-31 17:12:00,67.0,57.0,29.83,SW,232,8.0,17.0,70,0.00,,,0.17,,2013-03-31 21:12:00,
2013-03-31 17:22:00,63.0,59.0,29.81,SW,232,4.0,13.0,86,0.03,,,0.17,,2013-03-31 21:22:00,
2013-03-31 17:34:00,65.0,61.0,29.81,SSW,200,2.0,5.0,86,0.03,,,0.17,,2013-03-31 21:34:00,
2013-03-31 17:43:00,65.0,61.0,29.81,SSW,200,2.0,5.0,86,0.03,,,0.17,,2013-03-31 21:43:00,
2013-03-31 17:54:00,65.0,59.0,29.80,SSE,150,0.0,4.0,82,0.03,,,0.17,,2013-03-31 21:54:00,
2013-03-31 18:04:00,66.0,58.0,29.80,WSW,243,3.0,6.0,75,0.03,,,0.17,,2013-03-31 22:04:00,
2013-03-31 18:13:00,66.0,58.0,29.80,WSW,243,3.0,6.0,75,0.03,,,0.17,,2013-03-31 22:13:00,
2013-03-31 18:23:00,68.0,56.0,29.80,WSW,246,6.0,13.0,66,0.00,,,0.17,,2013-03-31 22:23:00,
2013-03-31 18:33:00,67.0,56.0,29.81,WSW,239,5.0,12.0,67,0.00,,,0.17,,2013-03-31 22:33:00,
2013-03-31 18:43:00,67.0,56.0,29.81,WSW,239,5.0,12.0,67,0.00,,,0.17,,2013-03-31 22:43:00,
2013-03-31 18:53:00,67.0,54.0,29.81,WSW,246,8.0,15.0,64,0.00,,,0.17,,2013-03-31 22:53:00,
2013-03-31 19:03:00,67.0,54.0,29.82,WSW,240,4.0,13.0,63,0.00,,,0.17,,2013-03-31 23:03:00,
2013-03-31 19:13:00,67.0,54.0,29.82,WSW,240,4.0,13.0,63,0.00,,,0.17,,2013-03-31 23:13:00,
2013-03-31 19:22:00,67.0,54.0,29.82,SSW,194,6.0,14.0,62,0.00,,,0.17,,2013-03-31 23:22:00,
2013-03-31 19:32:00,66.0,53.0,29.83,NW,312,9.0,16.0,63,0.00,,,0.17,,2013-03-31 23:32:00,
2013-03-31 19:42:00,66.0,53.0,29.83,NW,312,9.0,16.0,63,0.00,,,0.17,,2013-03-31 23:42:00,
2013-03-31 19:53:00,66.0,54.0,29.83,SW,231,8.0,14.0,65,0.00,,,0.17,,2013-03-31 23:53:00,
2013-03-31 20:02:00,65.0,54.0,29.83,North,359,4.0,12.0,67,0.00,,,0.17,,2013-04-01 00:02:00,
2013-03-31 20:13:00,65.0,54.0,29.83,North,359,4.0,12.0,67,0.00,,,0.17,,2013-04-01 00:13:00,
2013-03-31 20:22:00,65.0,54.0,29.83,WSW,253,7.0,9.0,68,0.00,,,0.17,,2013-04-01 00:22:00,
2013-03-31 20:32:00,64.0,54.0,29.83,West,270,4.0,7.0,71,0.00,,,0.17,,2013-04-01 00:32:00,
2013-03-31 20:43:00,64.0,54.0,29.83,West,270,4.0,7.0,71,0.00,,,0.17,,2013-04-01 00:43:00,
2013-03-31 20:53:00,62.0,56.0,29.83,SW,222,0.0,2.0,81,0.00,,,0.17,,2013-04-01 00:53:00,
2013-03-31 21:03:00,60.0,56.0,29.83,SSW,204,0.0,2.0,87,0.00,,,0.17,,2013-04-01 01:03:00,
2013-03-31 21:12:00,60.0,56.0,29.83,SSW,204,0.0,2.0,87,0.00,,,0.17,,2013-04-01 01:12:00,
2013-03-31 21:23:00,59.0,57.0,29.84,SSW,204,0.0,0.0,92,0.00,,,0.17,,2013-04-01 01:23:00,
2013-03-31 21:32:00,59.0,57.0,29.84,WSW,243,0.0,4.0,94,0.00,,,0.17,,2013-04-01 01:32:00,
2013-03-31 21:42:00,59.0,57.0,29.84,WSW,243,0.0,4.0,94,0.00,,,0.17,,2013-04-01 01:42:00,
2013-03-31 21:53:00,59.0,56.0,29.84,WNW,297,3.0,8.0,91,0.00,,,0.17,,2013-04-01 01:53:00,
2013-03-31 22:03:00,60.0,56.0,29.85,West,269,2.0,7.0,87,0.00,,,0.17,,2013-04-01 02:03:00,
2013-03-31 22:13:00,60.0,56.0,29.85,West,269,2.0,7.0,87,0.00,,,0.17,,2013-04-01 02:13:00,
2013-03-31 22:23:00,58.0,57.0,29.85,SW,233,3.0,6.0,96,0.00,,,0.17,,2013-04-01 02:23:00,
2013-03-31 22:33:00,58.0,57.0,29.85,WSW,242,1.0,3.0,97,0.00,,,0.17,,2013-04-01 02:33:00,
2013-03-31 22:42:00,58.0,57.0,29.85,WSW,242,1.0,3.0,97,0.00,,,0.17,,2013-04-01 02:42:00,
2013-03-31 22:53:00,57.0,57.0,29.85,South,191,0.0,3.0,99,0.00,,,0.17,,2013-04-01 02:53:00,
2013-03-31 23:03:00,58.0,57.0,29.85,ESE,121,0.0,2.0,97,0.00,,,0.17,,2013-04-01 03:03:00,
2013-03-31 23:12:00,58.0,57.0,29.85,ESE,121,0.0,2.0,97,0.00,,,0.17,,2013-04-01 03:12:00,
2013-03-31 23:22:00,58.0,57.0,29.85,SW,232,1.0,4.0,97,0.00,,,0.17,,2013-04-01 03:22:00,
2013-03-31 23:34:00,59.0,58.0,29.85,South,187,2.0,5.0,96,0.00,,,0.17,,2013-04-01 03:34:00,
2013-03-31 23:43:00,59.0,58.0,29.85,South,187,2.0,5.0,96,0.00,,,0.17,,2013-04-01 03:43:00,
2013-03-31 23:53:00,59.0,58.0,29.85,SW,225,1.0,4.0,96,0.00,,,0.17,,2013-04-01 03:53:00,